EHI
0 0 0 0 0 0 0 0 0 0 0 0 0 0 0 0 0 0 0 0 1 1 1 1 2 2 2 2 2 3 3 3 3 3 3 3 3 3 3 3 3 3 3
0 0 0 0 0 0 0 0 0 0 0 0 0 0 0 0 0 0 0 0 0 1 1 0 1 1 1 1 1 2 2 2 3 3 3 3 3 3 3 3 3 3 3
0 0 0 0 0 0 0 0 0 0 0 0 0 0 0 0 0 0 0 0 0 0 1 0 0 0 0 0 0 1 1 1 1 2 2 2 3 3 3 3 3 3 3
0 0 0 0 0 0 0 0 0 0 0 0 0 0 0 0 0 0 0 0 0 0 0 0 0 0 0 0 0 0 0 0 0 1 1 1 2 2 3 3 3 3 3
0 0 0 0 0 0 0 0 0 0 0 0 0 0 0 0 0 0 0 0 0 0 0 0 0 0 0 0 0 0 0 0 0 0 0 0 1 1 1 2 3 3 3
0 0 0 0 0 0 0 0 0 0 0 0 0 0 0 0 0 0 0 0 0 0 0 0 0 0 0 0 0 0 0 0 0 0 0 0 0 0 0 1 2 3 3
0 0 0 0 0 0 0 0 0 0 0 0 0 0 0 0 0 0 0 0 0 0 0 0 0 0 0 0 0 0 0 0 0 0 0 0 0 0 0 0 1 2 3
0 0 0 0 0 0 0 0 0 0 0 0 0 0 0 0 0 0 0 0 0 0 0 0 0 0 0 0 0 0 0 0 0 1 1 0 0 0 0 0 0 1 2
0 0 0 0 0 0 0 0 0 0 0 0 0 0 0 0 0 0 0 0 0 0 0 0 0 0 0 0 0 0 0 0 0 1 1 1 1 1 0 0 0 0 1
0 0 0 0 0 0 0 0 0 0 0 0 0 0 0 0 0 0 0 0 0 0 0 0 0 0 0 0 0 0 0 0 0 1 1 1 1 2 1 0 0 0 0
0 0 0 0 0 0 0 0 0 0 0 0 0 0 0 0 0 0 0 0 0 0 0 0 0 0 0 0 0 0 0 0 0 0 0 0 1 1 1 0 0 0 0
0 0 0 0 0 0 0 0 0 0 0 0 0 0 0 0 0 0 0 0 0 0 0 0 0 0 0 0 0 0 0 0 0 0 0 0 0 1 1 0 0 0 0
0 0 0 0 0 0 0 0 0 0 0 0 0 0 0 0 0 0 0 0 0 0 0 0 0 0 0 0 0 0 0 0 0 0 0 0 0 1 1 1 1 0 0
0 0 0 0 0 0 0 0 0 0 0 0 0 0 0 0 0 0 0 0 0 0 0 0 0 0 0 0 0 0 0 0 0 0 0 0 0 1 2 3 3 1 0
0 0 0 0 0 0 0 0 0 0 0 0 0 0 0 0 0 0 0 0 0 0 0 0 0 0 0 0 0 0 0 0 0 0 0 0 0 1 3 4 3 1 0
0 0 0 0 0 0 0 0 0 0 0 0 0 0 0 0 0 0 0 0 0 0 0 0 0 0 0 0 0 0 0 0 0 0 1 1 1 3 4 4 3 1 0
0 0 0 0 0 0 0 0 0 0 0 0 0 0 0 0 0 0 0 0 0 0 0 0 0 0 0 0 0 0 0 0 0 0 1 2 3 4 4 3 2 1 0
0 0 0 0 0 0 0 0 0 0 0 0 0 0 0 0 0 0 0 0 0 0 0 0 0 0 0 0 0 0 0 0 0 0 1 2 3 3 3 1 1 0 0
0 0 0 0 0 0 0 0 0 0 0 0 0 0 0 0 0 0 0 0 0 0 0 0 0 0 0 0 0 0 0 0 0 0 1 1 1 2 2 1 0 0 0
0 0 0 0 0 0 0 0 0 0 0 0 0 0 0 0 0 0 0 0 0 0 0 0 0 0 0 0 0 0 0 0 0 0 0 0 0 1 1 1 0 0 0
0 0 0 0 0 0 0 0 0 0 0 0 0 0 0 0 0 0 0 0 0 0 0 0 0 0 0 0 0 0 0 0 0 0 0 0 0 0 0 1 0 0 0
0 0 0 0 0 0 0 0 0 0 0 0 0 0 0 0 0 0 0 0 0 0 0 0 0 0 0 0 0 0 0 0 0 0 0 0 0 0 0 1 0 0 0
0 0 0 0 0 0 0 0 0 0 0 0 0 0 0 0 0 0 0 0 0 0 0 0 0 0 0 0 0 0 0 0 0 0 0 0 0 0 0 0 0 0 0
0 0 0 0 0 0 0 0 0 0 0 0 0 0 0 0 0 0 0 0 0 0 0 0 0 0 0 0 0 0 0 0 0 0 0 0 0 0 0 0 0 0 0
0 0 0 0 0 0 0 0 0 0 0 0 0 0 0 0 0 0 0 0 0 0 0 0 0 0 0 0 1 0 0 0 0 0 0 0 0 0 0 0 0 0 0
0 0 0 0 0 0 0 0 0 0 0 0 0 0 0 0 0 0 0 0 0 0 0 0 0 0 0 0 1 0 0 0 0 0 0 0 0 0 0 0 0 0 0
Wind_Speed
1 2 2 2 2 2 2 2 3 3 3 3 3 4 4 4 4 4 4 9 9 7 6 5 5 5 5 5 5 4 4 4 4 4 4 5 6 6 7 7 6 6 6
1 1 2 2 2 2 2 2 2 2 2 2 3 4 4 3 4 4 4 5 9 8 7 6 5 5 5 4 4 5 4 4 4 3 4 5 6 6 7 7 6 6 6
2 2 2 1 1 1 2 2 3 2 3 3 3 3 3 3 3 4 4 3 4 8 8 7 6 6 5 5 4 4 4 4 4 4 5 6 7 7 7 6 6 6 6
2 2 2 1 1 1 2 2 2 2 2 2 2 3 3 3 3 3 3 3 3 4 6 8 7 6 5 5 5 4 4 4 5 5 6 7 7 7 7 7 6 6 6
2 2 1 1 1 2 1 1 2 2 2 2 2 2 3 3 3 3 4 4 3 3 3 6 8 8 7 6 5 4 4 4 5 6 7 7 7 7 7 7 6 5 5
2 2 1 1 2 2 2 2 2 2 2 1 2 3 2 2 2 3 3 3 3 4 4 4 4 5 7 7 5 4 4 4 4 5 6 6 7 7 6 6 6 5 5
2 2 1 2 2 2 2 2 2 3 2 1 2 2 3 3 3 3 3 3 4 4 4 4 3 3 4 7 6 5 4 4 4 4 5 6 6 6 6 6 5 5 5
2 3 2 2 2 2 2 2 2 2 1 1 2 2 2 3 3 3 3 3 3 3 4 4 4 4 3 3 4 5 5 4 3 4 5 5 6 6 6 6 6 6 6
2 3 2 2 2 2 2 1 2 2 1 1 1 2 2 1 2 3 3 3 3 3 3 3 4 4 4 3 3 4 5 4 3 3 4 5 5 6 5 5 5 5 5
2 2 2 2 2 1 1 1 1 1 2 1 1 1 1 2 1 1 2 2 3 3 3 3 3 3 4 3 4 5 5 5 4 3 3 4 5 5 5 4 4 5 5
3 2 2 2 1 1 1 1 1 1 1 2 1 1 1 2 1 1 1 2 3 2 3 3 2 3 3 3 3 4 5 5 4 3 2 3 4 4 4 4 4 5 5
2 2 1 1 1 1 1 1 1 2 1 1 1 1 2 1 1 1 1 1 1 2 2 2 2 2 3 3 4 6 5 5 4 3 2 3 3 3 3 4 4 4 4
1 1 1 1 0 0 1 1 2 1 1 2 2 1 1 1 2 2 2 1 1 2 2 2 2 2 2 2 3 6 5 4 4 4 3 3 3 3 2 3 3 3 3
1 1 0 0 0 0 1 1 1 1 1 1 1 1 1 1 1 2 2 2 0 1 1 2 2 2 2 2 3 4 3 4 4 4 4 3 2 2 2 1 2 3 2
1 1 1 0 0 0 1 1 1 1 1 1 1 1 1 1 1 1 2 2 3 1 1 2 1 2 2 1 3 2 2 3 3 4 3 3 2 2 1 1 1 1 1
1 1 1 1 0 0 0 1 0 0 1 1 1 1 1 1 1 1 2 1 2 2 1 1 1 2 2 2 2 2 2 3 2 2 2 2 2 2 1 0 0 0 1
1 0 1 1 0 0 0 1 1 1 1 1 0 1 1 1 1 1 1 1 1 2 2 1 1 1 1 1 2 1 1 1 1 1 1 1 1 1 1 0 1 1 1
1 1 1 1 1 1 1 1 1 1 1 2 1 1 1 1 1 1 1 1 2 2 2 2 1 1 1 1 1 1 1 1 0 1 0 0 0 0 1 0 0 1 1
1 1 1 1 2 1 1 2 2 2 2 2 2 2 2 2 1 1 1 1 1 1 1 2 1 1 1 1 1 1 1 1 1 1 1 2 1 1 1 1 1 0 1
1 1 1 1 2 2 2 2 2 2 2 2 2 3 3 3 3 3 2 2 2 1 1 1 1 1 1 1 0 0 1 1 1 1 1 2 2 2 2 2 2 1 1
1 1 1 1 1 1 1 1 2 2 2 1 1 2 2 2 3 2 2 2 3 2 2 1 1 1 1 1 1 1 1 1 1 1 1 1 1 1 1 2 3 3 3
2 1 1 1 2 2 3 2 1 1 2 2 2 2 2 2 2 3 3 3 4 4 3 2 2 2 3 2 2 1 1 0 1 1 1 2 1 2 2 2 3 4 4
1 1 1 1 2 3 3 2 1 0 1 2 2 2 2 1 1 1 2 2 3 4 4 4 4 4 4 4 3 3 2 2 2 1 1 2 1 2 2 3 4 5 5
0 1 1 1 2 3 4 3 2 1 0 1 2 2 2 2 2 1 1 1 1 2 3 3 4 5 4 4 5 4 3 1 1 1 1 1 1 2 2 2 4 5 5
1 1 1 1 2 3 4 3 2 1 1 1 2 2 2 3 3 2 2 1 1 2 2 2 2 2 2 3 3 2 2 1 1 2 1 1 1 1 2 2 3 4 4
1 1 1 1 2 3 4 3 1 0 1 1 1 1 2 2 3 2 3 3 2 3 2 2 2 2 2 3 4 4 4 3 1 2 2 2 1 0 1 2 1 2 2
Wind_Direction
75 61 50 40 38 44 52 49 50 46 42 38 44 51 43 38 33 25 17 29 31 35 44 52 56 58 58 59 59 58 58 69 81 94 110 119 118 114 111 107 102 100 103
97 79 61 49 43 47 60 68 64 57 45 45 44 42 39 36 32 27 24 20 26 28 33 37 42 45 46 50 49 48 51 64 68 87 111 121 122 118 115 109 104 103 101
110 101 82 60 40 49 69 72 62 58 58 52 43 36 38 34 33 27 26 23 17 24 28 31 35 37 33 34 38 44 47 52 57 85 107 118 119 117 115 111 107 103 102
100 100 91 76 67 67 73 83 75 65 56 52 43 31 32 29 31 27 29 26 20 16 16 24 28 30 27 28 33 39 47 51 62 91 107 113 114 115 111 111 108 102 99
93 102 101 87 89 81 73 89 72 86 83 65 56 40 27 26 18 26 31 28 22 18 12 14 18 19 19 21 27 32 45 58 69 90 106 113 117 117 113 113 108 103 100
84 93 95 81 91 89 69 67 75 67 81 76 65 45 23 18 22 25 24 26 23 20 17 15 13 8 13 16 19 26 44 69 79 96 111 116 120 121 118 118 112 107 104
88 95 88 79 85 98 104 97 88 77 55 54 66 32 14 23 31 24 20 31 25 18 20 22 17 10 6 9 16 23 36 60 79 93 111 118 124 125 123 124 119 115 107
71 88 88 93 95 99 91 87 93 87 56 51 94 79 12 358 8 19 18 27 18 19 22 22 22 15 6 0 9 24 31 45 73 97 115 121 128 129 122 123 118 114 106
63 74 87 97 91 105 123 114 112 118 125 26 65 120 127 238 322 349 12 23 17 22 11 11 19 14 11 9 0 12 26 37 58 94 115 122 130 129 122 127 124 116 110
56 67 82 93 99 95 112 132 102 114 134 146 36 45 111 150 143 338 343 358 12 18 6 8 8 14 17 12 7 12 22 30 45 73 119 126 130 130 130 131 128 120 116
38 49 68 83 96 103 118 107 86 90 122 147 146 114 73 54 75 137 303 337 354 356 358 3 11 16 17 12 6 17 25 30 42 56 95 131 133 133 141 141 133 124 119
23 29 60 65 83 102 123 143 134 121 129 129 126 123 130 135 153 147 194 293 325 328 348 5 8 11 10 9 9 18 25 32 38 47 67 93 118 118 125 140 133 130 128
8 348 38 50 42 107 133 123 124 131 141 143 152 158 151 159 150 154 154 199 303 314 334 359 351 4 9 10 0 11 20 30 38 46 62 82 87 88 103 131 145 144 144
279 294 55 85 35 75 108 120 124 148 141 158 159 155 159 187 161 161 165 161 149 331 345 322 333 5 3 360 358 8 15 27 42 50 59 69 85 92 91 104 146 150 152
327 3 358 8 348 53 100 112 119 157 156 179 186 172 173 201 181 187 178 169 162 187 277 300 318 343 347 355 360 17 22 25 44 51 63 71 84 95 107 103 117 135 138
345 354 344 325 288 345 95 114 129 176 139 194 188 169 196 209 194 190 189 185 172 171 212 266 272 309 335 351 7 21 21 19 29 47 60 76 81 74 76 145 166 154 138
344 342 304 292 293 276 208 146 196 185 167 219 221 180 225 210 198 205 182 169 174 161 193 272 301 323 341 335 340 358 12 0 4 19 50 92 79 60 44 2 246 223 190
312 292 298 288 264 267 230 197 213 216 202 215 225 195 229 215 212 209 185 195 197 190 181 225 285 312 304 295 312 323 348 354 341 329 252 199 175 192 224 244 294 235 207
315 323 333 295 274 258 243 232 217 221 219 223 218 204 218 195 220 225 205 205 212 204 188 191 247 285 308 312 343 316 336 340 317 290 256 256 245 229 226 237 241 280 237
311 304 296 288 283 266 245 243 229 226 228 229 228 221 215 204 212 215 214 213 197 179 168 180 224 267 283 270 197 249 319 336 315 328 315 300 281 254 232 228 238 248 255
321 302 296 314 309 273 243 224 235 223 210 214 238 239 229 223 229 221 217 202 183 179 179 188 208 221 235 225 228 222 239 304 308 301 305 296 293 282 263 247 239 236 235
339 345 334 310 308 309 317 309 262 209 191 192 221 248 248 239 260 262 250 223 194 185 193 194 210 218 229 222 207 194 189 169 273 274 240 283 258 256 259 242 250 243 235
335 338 329 325 306 305 322 338 0 82 193 202 208 227 251 256 256 254 261 256 242 228 200 191 203 220 217 212 191 197 205 210 226 239 185 267 264 259 263 264 257 245 238
263 284 303 303 302 312 330 335 345 33 238 240 228 219 224 237 227 205 205 256 263 254 238 222 218 225 222 201 193 201 202 201 303 293 167 236 268 267 289 271 261 242 236
262 267 284 301 301 306 326 341 14 355 318 294 275 245 229 229 233 187 166 200 265 286 282 262 260 247 229 194 166 141 143 147 244 257 209 198 251 278 286 273 266 254 244
244 252 292 294 286 292 314 335 10 215 297 301 310 289 261 257 237 187 183 191 225 255 266 283 301 307 256 209 186 184 182 185 202 236 213 191 221 231 291 281 271 267 254